Plattsmouth, NE

10:38 AM CST on February 25, 2017 (GMT -0600)
Plattsmouth Municipal

Weather History for KPMV - February, 2012

Change the Weather History Date:

Tuesday, February 28, 2012

  Actual Average (KOFF) Record (KOFF)
Temperature  
Mean Temperature 44 °F -  
Max Temperature 54 °F 37 °F 64 °F (2006)
Min Temperature 34 °F 21 °F 0 °F (2001)
Degree Days  
Heating Degree Days 22    
Moisture  
Dew Point 36 °F    
Average Humidity 78    
Maximum Humidity 97    
Minimum Humidity 56    
Precipitation  
Precipitation 0.19 in - - ()
Sea Level Pressure  
Sea Level Pressure 29.90 in    
Wind  
Wind Speed 14 mph (SE)    
Max Wind Speed 24 mph    
Max Gust Speed 32 mph    
Visibility 8 miles    
Events Rain , Thunderstorm    
Averages and records for this station are not official NWS values.
T = Trace of Precipitation, MM = Missing Value Source: NWS Daily Summary

Daily Weather History Graph

Daily Weather History Graph

Search for Another Location

Airport or City:

Trip Planner

Search our weather history database for the weather conditions in past years. The results will help you decide how hot, cold, wet, or windy it might be!

Date:

Astronomy

Feb. 28, 2012 Rise Set
Actual Time 7:00 AM CST 6:13 PM CST
Civil Twilight 6:32 AM CST 6:40 PM CST
Nautical Twilight 6:00 AM CST 7:12 PM CST
Astronomical Twilight 5:28 AM CST 7:44 PM CST
Moon 10:04 AM CST (2/28) 12:09 AM CST (2/28)
Length of Visible Light 12h 08m
Length of Day
11h 13m
Waxing Crescent, 38% of the Moon is Illuminated
Feb 28
Waxing Crescent
Feb 29
First Quarter
Mar 8
Full
Mar 14
Last Quarter
Mar 22
New

Hourly Weather History & Observations

Time (CST) Temp. Windchill Dew Point Humidity Pressure Visibility Wind Dir Wind Speed Gust Speed Precip Events Conditions
12:15 AM 35.1 °F 25.5 °F 21.9 °F 59% 30.26 in 10.0 mi SE 15.0 mph - N/A   Overcast
12:35 AM 34.7 °F 26.4 °F 22.1 °F 60% 30.25 in 10.0 mi SE 11.5 mph 17.3 mph N/A   Overcast
12:55 AM 34.9 °F 26.2 °F 22.5 °F 61% 30.24 in 10.0 mi SE 12.7 mph 17.3 mph N/A   Overcast
1:15 AM 35.6 °F 27.1 °F 21.7 °F 57% 30.23 in 10.0 mi SE 12.7 mph 20.7 mph N/A   Overcast
1:35 AM 35.6 °F 27.1 °F 21.7 °F 57% 30.22 in 10.0 mi ESE 12.7 mph - N/A   Overcast
1:55 AM 35.8 °F 26.9 °F 21.7 °F 57% 30.22 in 10.0 mi ESE 13.8 mph 17.3 mph N/A   Overcast
2:15 AM 35.6 °F 27.1 °F 21.2 °F 56% 30.21 in 10.0 mi ESE 12.7 mph - N/A   Overcast
2:35 AM 35.6 °F 26.6 °F 21.7 °F 57% 30.20 in 10.0 mi ESE 13.8 mph - N/A   Overcast
2:55 AM 35.6 °F 28.0 °F 21.6 °F 57% 30.19 in 10.0 mi SE 10.4 mph - N/A   Overcast
3:15 AM 35.6 °F 28.0 °F 21.9 °F 58% 30.18 in 10.0 mi SE 10.4 mph - N/A   Overcast
3:35 AM 35.6 °F 28.0 °F 22.8 °F 60% 30.17 in 10.0 mi SE 10.4 mph - N/A   Overcast
3:55 AM 35.6 °F 28.0 °F 22.8 °F 60% 30.15 in 10.0 mi SE 10.4 mph - N/A   Overcast
4:15 AM 35.8 °F 27.8 °F 22.6 °F 59% 30.13 in 10.0 mi ESE 11.5 mph - N/A   Overcast
4:35 AM 36.1 °F 29.3 °F 22.6 °F 58% 30.14 in 10.0 mi SE 9.2 mph - N/A   Overcast
4:55 AM 36.5 °F 28.7 °F 23.0 °F 58% 30.11 in 10.0 mi SE 11.5 mph - N/A   Overcast
5:15 AM 37.0 °F 29.3 °F 23.0 °F 57% 30.11 in 10.0 mi SE 11.5 mph - N/A   Overcast
5:35 AM 37.4 °F 29.8 °F 22.8 °F 56% 30.10 in 10.0 mi SE 11.5 mph - N/A   Overcast
5:55 AM 37.6 °F 30.0 °F 23.0 °F 56% 30.09 in 10.0 mi SE 11.5 mph - N/A   Overcast
6:15 AM 37.8 °F 30.2 °F 23.5 °F 57% 30.08 in 10.0 mi SE 11.5 mph - N/A   Overcast
6:35 AM 37.4 °F 29.8 °F 25.3 °F 62% 30.07 in 10.0 mi ESE 11.5 mph - N/A   Light Drizzle
6:55 AM 37.8 °F 31.3 °F 25.7 °F 62% 30.08 in 10.0 mi SE 9.2 mph - N/A Rain Light Rain
7:15 AM 36.5 °F 28.7 °F 28.8 °F 74% 30.07 in 7.0 mi SE 11.5 mph - N/A Rain Rain
7:35 AM 35.6 °F 27.1 °F 30.4 °F 81% 30.06 in 4.0 mi SE 12.7 mph - 0.03 in   Overcast
7:55 AM 35.6 °F 27.5 °F 31.3 °F 84% 30.06 in 5.0 mi SE 11.5 mph - 0.04 in   Overcast
8:15 AM 35.6 °F 26.6 °F 32.0 °F 87% 30.05 in 3.0 mi SE 13.8 mph 19.6 mph 0.02 in   Overcast
8:35 AM 35.8 °F 26.9 °F 32.4 °F 87% 30.03 in 4.0 mi SE 13.8 mph - 0.03 in Rain Light Rain
8:55 AM 36.7 °F 28.4 °F 33.1 °F 87% 30.01 in 10.0 mi SE 12.7 mph 20.7 mph 0.03 in Rain Light Rain
9:15 AM 37.0 °F 27.4 °F 33.4 °F 87% 30.00 in 3.0 mi SE 17.3 mph 20.7 mph 0.01 in Rain Light Rain
9:35 AM 37.0 °F 28.9 °F 34.7 °F 91% 30.00 in 4.0 mi SE 12.7 mph 18.4 mph 0.04 in Rain Rain
9:55 AM 38.3 °F 29.7 °F 35.6 °F 90% 29.98 in 10.0 mi SE 15.0 mph 20.7 mph 0.04 in   Overcast
10:15 AM 39.4 °F 31.4 °F 36.1 °F 88% 29.96 in 10.0 mi SE 13.8 mph - N/A   Light Drizzle
10:35 AM 40.1 °F 32.7 °F 36.9 °F 88% 29.95 in 10.0 mi SE 12.7 mph 20.7 mph N/A   Overcast
10:55 AM 41.0 °F 33.5 °F 36.7 °F 85% 29.93 in 10.0 mi SE 13.8 mph 20.7 mph N/A   Overcast
11:15 AM 42.6 °F 35.2 °F 37.8 °F 83% 29.92 in 10.0 mi SE 15.0 mph 20.7 mph N/A   Overcast
11:35 AM 45.3 °F 37.8 °F 39.6 °F 80% 29.89 in 10.0 mi SE 18.4 mph 23.0 mph N/A   Overcast
12:15 PM 46.8 °F - 40.1 °F 78% 29.85 in 10.0 mi SE 15.0 mph 19.6 mph N/A   Scattered Clouds
12:35 PM 46.8 °F - 40.3 °F 78% 29.85 in 10.0 mi SSE 12.7 mph 19.6 mph N/A Rain Light Rain
12:55 PM 47.1 °F - 42.4 °F 84% 29.82 in 10.0 mi SE 9.2 mph - N/A Rain Light Rain
1:35 PM 47.5 °F - 43.2 °F 85% 29.76 in 5.0 mi ESE 12.7 mph 17.3 mph N/A Rain Light Rain
1:55 PM 46.6 °F - 42.8 °F 87% 29.74 in 10.0 mi SE 11.5 mph - 0.01 in Rain Light Rain
2:15 PM 47.3 °F - 43.7 °F 87% 29.71 in 7.0 mi SE 15.0 mph 21.9 mph N/A Rain Rain
2:35 PM 48.7 °F - 45.1 °F 87% 29.69 in 10.0 mi SE 13.8 mph 21.9 mph N/A   Overcast
2:55 PM 49.3 °F - 44.6 °F 84% 29.68 in 10.0 mi SE 15.0 mph 21.9 mph N/A   Overcast
3:15 PM 49.5 °F - 44.8 °F 84% 29.68 in 10.0 mi SE 15.0 mph 19.6 mph N/A   Overcast
3:35 PM 50.2 °F - 45.5 °F 84% 29.66 in 10.0 mi SE 16.1 mph 21.9 mph N/A   Overcast
3:55 PM 50.7 °F - 45.9 °F 83% 29.65 in 10.0 mi SE 13.8 mph 19.6 mph N/A   Overcast
4:15 PM 51.3 °F - 47.7 °F 87% 29.64 in 4.0 mi SSE 20.7 mph 32.2 mph N/A   Overcast
4:35 PM 51.1 °F - 49.1 °F 93% 29.63 in 1.8 mi SSE 24.2 mph 29.9 mph N/A   Overcast
4:55 PM 50.9 °F - 49.5 °F 95% 29.61 in 1.8 mi SE 23.0 mph 29.9 mph N/A   Light Drizzle
5:15 PM 50.7 °F - 49.6 °F 96% 29.60 in 1.8 mi SE 16.1 mph 32.2 mph N/A   Overcast
5:35 PM 50.4 °F - 49.5 °F 97% 29.58 in 2.0 mi SSE 23.0 mph 29.9 mph N/A   Overcast
6:15 PM 50.9 °F - 50.0 °F 97% 29.55 in 4.0 mi SE 19.6 mph 28.8 mph N/A   Overcast
6:35 PM 50.9 °F - 50.2 °F 97% 29.52 in 4.0 mi SE 17.3 mph 21.9 mph N/A   Overcast
6:55 PM 51.3 °F - 50.5 °F 97% 29.53 in 5.0 mi SE 18.4 mph 27.6 mph N/A   Overcast
7:15 PM 51.8 °F - 51.1 °F 97% 29.52 in 5.0 mi SSE 17.3 mph 26.5 mph N/A   Overcast
7:35 PM 52.2 °F - 51.3 °F 97% 29.50 in 5.0 mi SE 13.8 mph 23.0 mph N/A   Overcast
7:55 PM 52.3 °F - 51.4 °F 97% 29.47 in 5.0 mi SE 12.7 mph 24.2 mph N/A Rain , Thunderstorm Light Thunderstorms and Rain
8:15 PM 52.7 °F - 51.8 °F 97% 29.44 in 4.0 mi SE 9.2 mph 18.4 mph 0.05 in Rain , Thunderstorm Light Thunderstorms and Rain
8:35 PM 53.4 °F - 52.7 °F 97% 29.44 in 5.0 mi SSE 21.9 mph 28.8 mph 0.05 in Rain , Thunderstorm Rain
8:55 PM 54.5 °F - 53.1 °F 95% 29.35 in 5.0 mi SE 21.9 mph 29.9 mph 0.07 in Rain Light Rain
9:15 PM 54.0 °F - 52.3 °F 94% 29.33 in 7.0 mi SSE 17.3 mph 26.5 mph N/A   Overcast
9:35 PM 54.1 °F - 51.6 °F 91% 29.42 in 5.0 mi South 24.2 mph 29.9 mph 0.06 in Rain Heavy Rain
9:55 PM 52.2 °F - 49.5 °F 91% 29.39 in 5.0 mi South 17.3 mph 23.0 mph 0.17 in Rain , Thunderstorm Thunderstorms and Rain
10:15 PM 50.9 °F - 47.8 °F 89% 29.38 in 10.0 mi South 17.3 mph - 0.01 in Rain Light Rain
10:35 PM 51.8 °F - 47.7 °F 86% 29.35 in 10.0 mi SSW 16.1 mph - 0.01 in   Mostly Cloudy
10:55 PM 52.3 °F - 48.2 °F 86% 29.34 in 10.0 mi South 13.8 mph - 0.01 in   Mostly Cloudy
11:15 PM 51.6 °F - 48.4 °F 89% 29.30 in 10.0 mi South 10.4 mph - N/A   Mostly Cloudy
11:35 PM 51.1 °F - 47.7 °F 88% 29.35 in 10.0 mi SW 23.0 mph 27.6 mph N/A   Scattered Clouds
11:55 PM 48.7 °F - 41.0 °F 75% 29.37 in 10.0 mi WSW 17.3 mph 29.9 mph N/A   Clear